DLH8YH EDDM-EGCC

Flight info

Callsign DLH8YH
Flight time N/A
Altitude 34000
Route INPUD2S INPUD Y102 ALIBU DCT MASEK DCT ARPEG DCT GALSO Q63 ERING L179 LAM UN57 WELIN T420 ELVOS
Aircraft A320/M-SDE3FGHIRWY/LB1

Departure

Time 2026-05-07 17:14
Airport Munich Airport (EDDM)

Arrival

Time N/A
Airport Manchester Airport (EGCC)
Time Latitude Longitude Altitude Speed Heading
2026-05-07 16:01 48.35733 11.79699 1475 ft 0 kts 83°
2026-05-07 16:56 48.35726 11.79631 1481 ft 4 kts 79°
2026-05-07 16:57 48.35720 11.79591 1478 ft 4 kts 70°
2026-05-07 16:57 48.35708 11.79557 1471 ft 4 kts 38°
2026-05-07 16:57 48.35696 11.79548 1471 ft 0 kts 353°
2026-05-07 17:04 48.35701 11.79547 1485 ft 4 kts 353°
2026-05-07 17:04 48.35771 11.79535 1483 ft 12 kts 353°
2026-05-07 17:04 48.35856 11.79521 1479 ft 13 kts 354°
2026-05-07 17:05 48.35937 11.79508 1485 ft 9 kts 354°
2026-05-07 17:05 48.35955 11.79504 1473 ft 0 kts 352°
2026-05-07 17:05 48.35960 11.79503 1475 ft 0 kts 352°
2026-05-07 17:05 48.35965 11.79511 1486 ft 0 kts 352°
2026-05-07 17:06 48.35964 11.79503 1477 ft 0 kts 352°
2026-05-07 17:06 48.36179 11.79468 1485 ft 0 kts 352°
2026-05-07 17:06 48.36205 11.79481 1474 ft 14 kts 35°
2026-05-07 17:06 48.36229 11.79685 1485 ft 21 kts 83°
2026-05-07 17:07 48.36248 11.79910 1485 ft 22 kts 85°
2026-05-07 17:07 48.36266 11.80142 1475 ft 23 kts 83°
2026-05-07 17:07 48.36283 11.80379 1483 ft 23 kts 84°
2026-05-07 17:07 48.36303 11.80623 1485 ft 24 kts 83°
2026-05-07 17:08 48.36321 11.80871 1485 ft 24 kts 83°
2026-05-07 17:08 48.36340 11.81124 1474 ft 25 kts 83°
2026-05-07 17:08 48.36360 11.81381 1485 ft 25 kts 84°
2026-05-07 17:08 48.36380 11.81640 1485 ft 25 kts 84°
2026-05-07 17:09 48.36398 11.81898 1485 ft 21 kts 90°
2026-05-07 17:09 48.36399 11.82113 1482 ft 21 kts 82°
2026-05-07 17:09 48.36429 11.82291 1480 ft 11 kts 40°
2026-05-07 17:09 48.36501 11.82293 1485 ft 11 kts 353°
2026-05-07 17:10 48.36535 11.82285 1485 ft 6 kts 346°
2026-05-07 17:10 48.36576 11.82249 1478 ft 7 kts 317°
2026-05-07 17:10 48.36597 11.82209 1478 ft 0 kts 306°
2026-05-07 17:11 48.36598 11.82206 1475 ft 3 kts 306°
2026-05-07 17:12 48.36645 11.82110 1478 ft 16 kts 303°
2026-05-07 17:12 48.36674 11.81953 1485 ft 14 kts 273°
2026-05-07 17:12 48.36669 11.81869 1481 ft 0 kts 264°
2026-05-07 17:13 48.36659 11.81729 1485 ft 46 kts 264°
2026-05-07 17:13 48.36597 11.80900 1479 ft 110 kts 263°
2026-05-07 17:13 48.36488 11.79495 1486 ft 158 kts 264°
2026-05-07 17:13 48.36390 11.77765 1992 ft 163 kts 266°
2026-05-07 17:14 48.36270 11.76062 2720 ft 165 kts 265°
2026-05-07 17:14 48.36135 11.74271 3060 ft 183 kts 265°
2026-05-07 17:14 48.35982 11.72256 3306 ft 205 kts 265°
2026-05-07 17:14 48.35811 11.70035 3692 ft 221 kts 265°
2026-05-07 17:15 48.35779 11.67719 4390 ft 225 kts 285°
2026-05-07 17:15 48.36611 11.65771 4990 ft 236 kts 322°
2026-05-07 17:15 48.38187 11.64671 5415 ft 258 kts 343°
2026-05-07 17:15 48.39979 11.64127 6146 ft 266 kts 349°
2026-05-07 17:16 48.41829 11.63748 6931 ft 271 kts 350°
2026-05-07 17:16 48.43709 11.63376 7697 ft 275 kts 349°
2026-05-07 17:16 48.45615 11.62958 8469 ft 278 kts 348°
2026-05-07 17:16 48.47538 11.62485 9242 ft 282 kts 347°
2026-05-07 17:17 48.49485 11.61961 10019 ft 286 kts 346°
2026-05-07 17:17 48.51453 11.61399 10724 ft 289 kts 345°
2026-05-07 17:17 48.53442 11.60816 11413 ft 292 kts 345°
2026-05-07 17:17 48.55422 11.60229 12118 ft 295 kts 345°
2026-05-07 17:18 48.57450 11.59505 12812 ft 298 kts 338°
2026-05-07 17:18 48.59464 11.58379 12976 ft 319 kts 335°
2026-05-07 17:18 48.61546 11.57169 13467 ft 329 kts 335°
2026-05-07 17:18 48.63696 11.55916 14059 ft 334 kts 335°
2026-05-07 17:19 48.65876 11.54648 14667 ft 337 kts 335°
2026-05-07 17:19 48.68071 11.53373 15288 ft 339 kts 335°
2026-05-07 17:19 48.70278 11.52089 15895 ft 341 kts 335°
2026-05-07 17:19 48.72503 11.50794 16508 ft 344 kts 335°
2026-05-07 17:20 48.74742 11.49493 17123 ft 346 kts 336°
2026-05-07 17:20 48.77004 11.48182 17734 ft 349 kts 336°
2026-05-07 17:20 48.79276 11.46866 18333 ft 351 kts 336°
2026-05-07 17:20 48.81564 11.45540 18856 ft 353 kts 336°
2026-05-07 17:21 48.83868 11.44201 19373 ft 356 kts 336°
2026-05-07 17:21 48.86188 11.42848 19912 ft 358 kts 335°
2026-05-07 17:21 48.88521 11.41487 20439 ft 361 kts 336°
2026-05-07 17:21 48.90870 11.40114 20953 ft 363 kts 336°
2026-05-07 17:22 48.93236 11.38730 21458 ft 365 kts 336°
2026-05-07 17:22 48.95609 11.37340 21958 ft 367 kts 336°
2026-05-07 17:22 48.98007 11.35939 22424 ft 370 kts 336°
2026-05-07 17:22 49.00422 11.34529 22867 ft 373 kts 336°
2026-05-07 17:23 49.02854 11.33107 23315 ft 376 kts 336°
2026-05-07 17:23 49.05301 11.31672 23749 ft 378 kts 336°
2026-05-07 17:23 49.07708 11.30059 24138 ft 377 kts 327°
2026-05-07 17:23 49.09925 11.27907 24526 ft 379 kts 325°
2026-05-07 17:24 49.12146 11.25717 24907 ft 380 kts 325°
2026-05-07 17:24 49.14338 11.23547 25283 ft 382 kts 325°
2026-05-07 17:24 49.16577 11.21327 25662 ft 384 kts 325°
2026-05-07 17:24 49.18824 11.19097 26034 ft 386 kts 325°
2026-05-07 17:25 49.21074 11.16859 26410 ft 388 kts 325°
2026-05-07 17:25 49.23348 11.14594 26717 ft 391 kts 325°
2026-05-07 17:25 49.25635 11.12311 27007 ft 395 kts 325°
2026-05-07 17:25 49.27941 11.10007 27325 ft 397 kts 325°
2026-05-07 17:26 49.30261 11.07686 27675 ft 399 kts 325°
2026-05-07 17:26 49.32592 11.05357 28009 ft 401 kts 325°
2026-05-07 17:26 49.34942 11.03009 28337 ft 403 kts 325°
2026-05-07 17:26 49.37293 11.00655 28674 ft 405 kts 325°
2026-05-07 17:27 49.39654 10.98285 28996 ft 407 kts 325°
2026-05-07 17:27 49.42034 10.95894 29319 ft 409 kts 325°
2026-05-07 17:27 49.44416 10.93495 29639 ft 411 kts 325°
2026-05-07 17:27 49.46816 10.91074 29924 ft 414 kts 326°
2026-05-07 17:28 49.49227 10.88638 30195 ft 416 kts 326°
2026-05-07 17:28 49.51660 10.86183 30427 ft 419 kts 326°
2026-05-07 17:28 49.54102 10.83717 30651 ft 421 kts 326°
2026-05-07 17:28 49.56558 10.81229 30890 ft 424 kts 325°
2026-05-07 17:29 49.59024 10.78724 31132 ft 425 kts 325°
2026-05-07 17:29 49.61499 10.76208 31362 ft 427 kts 325°
2026-05-07 17:29 49.63985 10.73683 31588 ft 429 kts 325°
2026-05-07 17:29 49.66488 10.71141 31806 ft 431 kts 325°
2026-05-07 17:30 49.68995 10.68596 32066 ft 432 kts 325°
2026-05-07 17:30 49.71501 10.66047 32383 ft 432 kts 325°
2026-05-07 17:30 49.74010 10.63486 32659 ft 432 kts 325°
2026-05-07 17:30 49.76514 10.60925 32942 ft 432 kts 325°
2026-05-07 17:31 49.79023 10.58356 33241 ft 432 kts 325°
2026-05-07 17:31 49.81520 10.55794 33530 ft 432 kts 325°
2026-05-07 17:31 49.84034 10.53212 33829 ft 432 kts 325°
2026-05-07 17:31 49.86535 10.50640 34022 ft 432 kts 325°
2026-05-07 17:32 49.89014 10.48091 34052 ft 420 kts 325°
2026-05-07 17:32 49.91419 10.45619 34054 ft 407 kts 325°
2026-05-07 17:32 49.96048 10.40852 34052 ft 401 kts 325°
2026-05-07 17:33 50.00690 10.36047 34056 ft 400 kts 325°
2026-05-07 17:33 50.05358 10.31201 34059 ft 410 kts 325°
2026-05-07 17:34 50.10183 10.26181 34060 ft 424 kts 325°
2026-05-07 17:34 50.15170 10.20983 34056 ft 438 kts 325°
2026-05-07 17:35 50.20302 10.15624 34061 ft 450 kts 325°
2026-05-07 17:35 50.25516 10.10165 34063 ft 452 kts 325°
2026-05-07 17:36 50.30623 10.04463 34057 ft 451 kts 314°
2026-05-07 17:36 50.32590 10.00611 34058 ft 449 kts 299°
2026-05-07 17:36 50.33856 9.96199 34069 ft 449 kts 290°
2026-05-07 17:37 50.36057 9.87047 34064 ft 449 kts 290°
2026-05-07 17:37 50.38247 9.77882 34064 ft 449 kts 290°
2026-05-07 17:38 50.40440 9.68706 34059 ft 450 kts 290°
2026-05-07 17:38 50.42627 9.59517 34062 ft 450 kts 290°
2026-05-07 17:39 50.44788 9.50377 34061 ft 450 kts 290°
2026-05-07 17:39 50.46959 9.41179 34070 ft 450 kts 290°
2026-05-07 17:40 50.49129 9.31964 34073 ft 450 kts 290°
2026-05-07 17:40 50.51280 9.22745 34079 ft 450 kts 290°
2026-05-07 17:41 50.53422 9.13499 34069 ft 450 kts 290°
2026-05-07 17:41 50.55562 9.04250 34070 ft 450 kts 290°
2026-05-07 17:42 50.57703 8.94994 34066 ft 450 kts 290°
2026-05-07 17:42 50.59840 8.85740 34068 ft 450 kts 290°
2026-05-07 17:43 50.61958 8.76477 34072 ft 450 kts 290°
2026-05-07 17:43 50.64063 8.67184 34067 ft 450 kts 290°
2026-05-07 17:44 50.66178 8.57830 34069 ft 459 kts 290°
2026-05-07 17:44 50.68327 8.48321 34065 ft 461 kts 290°
2026-05-07 17:45 50.70475 8.38794 34060 ft 460 kts 289°
2026-05-07 17:45 50.72600 8.29276 34054 ft 460 kts 289°
2026-05-07 17:46 50.74719 8.19758 34052 ft 459 kts 289°
2026-05-07 17:46 50.76833 8.10240 34052 ft 459 kts 289°
2026-05-07 17:47 50.78935 8.00713 34048 ft 459 kts 289°
2026-05-07 17:47 50.81029 7.91171 34053 ft 459 kts 289°
2026-05-07 17:48 50.83110 7.81626 34055 ft 459 kts 289°
2026-05-07 17:48 50.85186 7.72096 34061 ft 459 kts 289°
2026-05-07 17:49 50.87253 7.62546 34056 ft 459 kts 289°
2026-05-07 17:49 50.89300 7.53038 34055 ft 459 kts 288°
2026-05-07 17:50 50.91357 7.43477 34059 ft 459 kts 288°
2026-05-07 17:50 50.93400 7.33901 34059 ft 458 kts 288°
2026-05-07 17:51 50.95436 7.24325 34059 ft 458 kts 288°
2026-05-07 17:51 50.97460 7.14744 34057 ft 458 kts 288°
2026-05-07 17:52 50.99482 7.05147 34060 ft 458 kts 288°
2026-05-07 17:52 51.01495 6.95552 34064 ft 458 kts 287°
2026-05-07 17:53 51.03494 6.85965 34063 ft 457 kts 287°
2026-05-07 17:53 51.05480 6.76380 34060 ft 456 kts 287°
2026-05-07 17:54 51.07462 6.66793 34057 ft 456 kts 287°
2026-05-07 17:54 51.09101 6.58826 34048 ft 456 kts 287°
2026-05-07 17:55 51.11061 6.49238 34061 ft 455 kts 287°
2026-05-07 17:55 51.13331 6.38101 34060 ft 455 kts 287°
2026-05-07 17:56 51.14962 6.30066 34052 ft 455 kts 287°
2026-05-07 17:56 51.16901 6.20461 34060 ft 455 kts 287°
2026-05-07 17:57 51.18820 6.10902 34077 ft 456 kts 286°
2026-05-07 17:57 51.20740 6.01266 34075 ft 456 kts 286°
2026-05-07 17:58 51.22653 5.91623 34063 ft 456 kts 286°
2026-05-07 17:58 51.24570 5.81967 34062 ft 456 kts 286°
2026-05-07 17:59 51.26475 5.72311 34062 ft 456 kts 286°
2026-05-07 17:59 51.28363 5.62644 34061 ft 456 kts 286°
2026-05-07 18:00 51.30242 5.52976 34076 ft 456 kts 286°
2026-05-07 18:00 51.31500 5.46509 34072 ft 455 kts 286°